Weather History for Orlando International, FL

Change the Weather History Date:

Saturday, May 31, 2014

  Actual Average Record
Temperature  
Mean Temperature 79 °F 80 °F  
Max Temperature 86 °F 90 °F 102 °F (1945)
Min Temperature 72 °F 70 °F 56 °F (1984)
Degree Days  
Heating Degree Days 0 0  
Month to date heating degree days 0 0  
Since 1 July heating degree days 406 571  
Cooling Degree Days 14 15  
Month to date cooling degree days 412 380  
Year to date cooling degree days 934 801  
Growing Degree Days 29 (Base 50)    
Moisture  
Dew Point 71 °F    
Average Humidity 78    
Maximum Humidity 94    
Minimum Humidity 61    
Precipitation  
Precipitation 0.03 in 0.18 in 1.88 in (2001)
Month to date precipitation 3.59 3.45  
Year to date precipitation 17.35 14.63  
Sea Level Pressure  
Sea Level Pressure 30.03 in    
Wind  
Wind Speed 5 mph (ESE)    
Max Wind Speed 22 mph    
Max Gust Speed 25 mph    
Visibility 10 miles    
Events Rain , Thunderstorm    
T = Trace of Precipitation, MM = Missing Value Source: NWS Daily Summary

Daily Weather History Graph

Daily Weather History Graph

Search for Another Location

Airport:

Trip Planner

Search our weather history database for the weather conditions in past years. The results will help you decide how hot, cold, wet, or windy it might be!

Date:

Astronomy

May. 31, 2014 Rise Set
Actual Time 6:28 AM EDT 8:17 PM EDT
Civil Twilight 6:01 AM EDT 8:44 PM EDT
Nautical Twilight 5:30 AM EDT 9:16 PM EDT
Astronomical Twilight 4:56 AM EDT 9:49 PM EDT
Moon 8:58 AM EDT 10:42 PM EDT
Length of Visible Light 14h 42m
Length of Day
13h 49m
Waxing Crescent, 8% of the Moon is Illuminated
May 31
Waxing Crescent
Jun 5
First Quarter
Jun 13
Full
Jun 19
Last Quarter
Jun 27
New

Hourly Weather History & Observations

Time (EDT) Temp. Heat Index Dew Point Humidity Pressure Visibility Wind Dir Wind Speed Gust Speed Precip Events Conditions
12:53 AM 73.9 °F - 71.1 °F 91% 30.05 in 10.0 mi South 3.5 mph - N/A   Overcast
1:53 AM 75.0 °F - 70.0 °F 84% 30.03 in 10.0 mi Calm Calm - N/A   Overcast
2:53 AM 73.9 °F - 70.0 °F 87% 30.03 in 10.0 mi Calm Calm - N/A   Mostly Cloudy
3:53 AM 72.0 °F - 69.1 °F 91% 30.02 in 10.0 mi Calm Calm - N/A   Overcast
4:53 AM 73.9 °F - 70.0 °F 87% 30.02 in 10.0 mi East 3.5 mph - N/A   Overcast
5:53 AM 73.0 °F - 70.0 °F 90% 30.02 in 10.0 mi Calm Calm - N/A   Overcast
6:53 AM 73.0 °F - 70.0 °F 90% 30.04 in 10.0 mi East 3.5 mph - N/A   Mostly Cloudy
7:53 AM 75.9 °F - 73.0 °F 91% 30.04 in 10.0 mi ESE 4.6 mph - N/A   Mostly Cloudy
8:53 AM 79.0 °F - 73.0 °F 82% 30.05 in 10.0 mi East 3.5 mph - N/A   Mostly Cloudy
9:53 AM 82.0 °F 86.3 °F 71.1 °F 69% 30.05 in 10.0 mi SSE 4.6 mph - N/A   Mostly Cloudy
10:53 AM 82.9 °F 87.5 °F 71.1 °F 67% 30.05 in 10.0 mi SSE 3.5 mph - N/A   Overcast
11:53 AM 84.0 °F 88.4 °F 70.0 °F 63% 30.05 in 10.0 mi Calm Calm - N/A   Overcast
12:53 PM 81.0 °F 84.1 °F 69.1 °F 67% 30.05 in 10.0 mi ENE 20.7 mph - N/A   Overcast
1:53 PM 78.1 °F - 72.0 °F 81% 30.06 in 9.0 mi NE 10.4 mph - 0.03 in Rain Light Rain
2:53 PM 84.0 °F 89.0 °F 71.1 °F 65% 30.03 in 10.0 mi NE 11.5 mph - 0.00 in   Mostly Cloudy
3:53 PM 82.9 °F 87.5 °F 71.1 °F 67% 30.02 in 10.0 mi ENE 11.5 mph - N/A   Mostly Cloudy
4:37 PM 84.0 °F 87.8 °F 69.1 °F 61% 30.01 in 10.0 mi East 10.4 mph - N/A Thunderstorm Thunderstorm
4:53 PM 84.9 °F 89.4 °F 70.0 °F 61% 30.01 in 10.0 mi East 11.5 mph - N/A Thunderstorm Thunderstorm
5:08 PM 78.8 °F - 68.0 °F 69% 30.02 in 10.0 mi South 16.1 mph - N/A Thunderstorm Thunderstorm
5:45 PM 75.9 °F - 70.0 °F 82% 30.00 in 10.0 mi SSE 4.6 mph - 0.00 in   Mostly Cloudy
5:53 PM 75.9 °F - 70.0 °F 82% 29.99 in 10.0 mi SSE 3.5 mph - 0.00 in   Mostly Cloudy
6:53 PM 80.1 °F 83.2 °F 70.0 °F 71% 30.00 in 10.0 mi SE 4.6 mph - N/A   Overcast
7:53 PM 79.0 °F - 71.1 °F 77% 30.01 in 10.0 mi Calm Calm - N/A   Overcast
8:53 PM 79.0 °F - 72.0 °F 79% 30.02 in 10.0 mi East 8.1 mph - N/A   Overcast
9:53 PM 77.0 °F - 71.1 °F 82% 30.04 in 10.0 mi East 6.9 mph - N/A   Mostly Cloudy
10:53 PM 75.9 °F - 70.0 °F 82% 30.06 in 10.0 mi East 3.5 mph - N/A   Overcast
11:53 PM 75.9 °F - 71.1 °F 85% 30.06 in 10.0 mi East 3.5 mph - N/A   Overcast